Auburn, IN

9:26 PM EDT on August 20, 2019 (GMT -0400)
Auburn

Weather History for KGWB - May, 2019

Change the Weather History Date:

Thursday, May 2, 2019

  Actual Average (KFWA) Record (KFWA)
Temperature  
Mean Temperature 58 °F -  
Max Temperature 66 °F 66 °F 88 °F (1959)
Min Temperature 50 °F 43 °F 30 °F (1903)
Degree Days  
Heating Degree Days 7    
Growing Degree Days 8 (Base 50)    
Moisture  
Dew Point 57 °F    
Average Humidity 95    
Maximum Humidity 100    
Minimum Humidity 83    
Precipitation  
Precipitation 0.05 in - - ()
Sea Level Pressure  
Sea Level Pressure 30.08 in    
Wind  
Wind Speed 3 mph (ESE)    
Max Wind Speed 8 mph    
Max Gust Speed -    
Visibility 7 miles    
Events Rain    
Averages and records for this station are not official NWS values.
T = Trace of Precipitation, MM = Missing Value Source: NWS Daily Summary

Daily Weather History Graph

Daily Weather History Graph

Search for Another Location

Airport or City:

Astronomy

May. 02, 2019 Rise Set
Actual Time 6:36 AM EDT 8:38 PM EDT
Civil Twilight 6:06 AM EDT 9:08 PM EDT
Nautical Twilight 5:29 AM EDT 9:45 PM EDT
Astronomical Twilight 4:49 AM EDT 10:25 PM EDT
Moon 5:51 AM EDT (5/2) 6:22 PM EDT (5/2)
Length of Visible Light 15h 02m
Length of Day
14h 01m
Waning Crescent, 5% of the Moon is Illuminated
May 2
Waning Crescent
May 4
New
May 11
First Quarter
May 18
Full
May 26
Last Quarter

Hourly Weather History & Observations

Time (EDT) Temp. Dew Point Humidity Pressure Visibility Wind Dir Wind Speed Gust Speed Precip Events Conditions
12:15 AM 55.4 °F 53.6 °F 94% 30.09 in 5.0 mi NNW 6.9 mph - N/A   Overcast
12:55 AM 53.6 °F 53.6 °F 100% 30.10 in 5.0 mi North 3.5 mph - N/A   Overcast
1:15 AM 53.6 °F 53.6 °F 100% 30.09 in 7.0 mi North 4.6 mph - N/A   Overcast
1:35 AM 53.6 °F 53.6 °F 100% 30.09 in 5.0 mi NNW 5.8 mph - N/A   Overcast
1:55 AM 53.6 °F 51.8 °F 94% 30.09 in 7.0 mi NNW 8.1 mph - N/A   Overcast
2:15 AM 53.6 °F 51.8 °F 94% 30.09 in 7.0 mi North 4.6 mph - N/A   Overcast
2:35 AM 53.6 °F 51.8 °F 94% 30.10 in 7.0 mi Calm Calm - N/A   Overcast
2:55 AM 53.6 °F 51.8 °F 94% 30.10 in 7.0 mi North 3.5 mph - N/A   Overcast
3:15 AM 53.6 °F 51.8 °F 94% 30.10 in 7.0 mi North 3.5 mph - N/A   Overcast
3:35 AM 53.6 °F 51.8 °F 94% 30.10 in 7.0 mi North 3.5 mph - N/A   Overcast
3:55 AM 53.6 °F 51.8 °F 94% 30.10 in 5.0 mi Calm Calm - N/A   Overcast
4:15 AM 53.6 °F 50.0 °F 88% 30.11 in 7.0 mi North 3.5 mph - N/A   Overcast
4:35 AM 51.8 °F 50.0 °F 94% 30.11 in 7.0 mi Calm Calm - N/A   Overcast
4:55 AM 50.0 °F 50.0 °F 100% 30.11 in 5.0 mi ENE 3.5 mph - N/A   Mostly Cloudy
5:15 AM 51.8 °F 50.0 °F 94% 30.11 in 7.0 mi Calm Calm - N/A   Overcast
5:35 AM 51.8 °F 51.8 °F 100% 30.11 in 7.0 mi Calm Calm - N/A   Overcast
5:55 AM 51.8 °F 51.8 °F 100% 30.11 in 7.0 mi Calm Calm - N/A   Overcast
6:15 AM 51.8 °F 51.8 °F 100% 30.11 in 7.0 mi Calm Calm - N/A   Overcast
6:35 AM 53.6 °F 51.8 °F 94% 30.11 in 7.0 mi Calm Calm - N/A   Overcast
6:55 AM 53.6 °F 51.8 °F 94% 30.12 in 4.0 mi Calm Calm - N/A   Overcast
7:15 AM 53.6 °F 51.8 °F 94% 30.11 in 3.0 mi East 4.6 mph - N/A   Overcast
7:35 AM 53.6 °F 51.8 °F 94% 30.11 in 1.5 mi East 3.5 mph - N/A   Overcast
7:55 AM 53.6 °F 53.6 °F 100% 30.11 in 1.0 mi ESE 3.5 mph - N/A   Overcast
8:15 AM 53.6 °F 53.6 °F 100% 30.12 in 0.8 mi Calm Calm - N/A   Overcast
8:35 AM 53.6 °F 53.6 °F 100% 30.12 in 1.0 mi East 5.8 mph - N/A   Overcast
8:55 AM 53.6 °F 53.6 °F 100% 30.11 in 1.0 mi East 4.6 mph - N/A   Overcast
9:15 AM 55.4 °F 55.4 °F 100% 30.12 in 1.2 mi ESE 4.6 mph - N/A   Overcast
9:35 AM 55.4 °F 55.4 °F 100% 30.12 in 1.2 mi ESE 3.5 mph - N/A   Overcast
9:55 AM 57.2 °F 55.4 °F 94% 30.11 in 1.5 mi ESE 4.6 mph - N/A   Overcast
10:15 AM 57.2 °F 57.2 °F 100% 30.11 in 2.0 mi East 4.6 mph - N/A   Overcast
10:35 AM 59.0 °F 57.2 °F 94% 30.12 in 2.0 mi East 3.5 mph - N/A   Overcast
10:55 AM 59.0 °F 57.2 °F 94% 30.13 in 3.0 mi Calm Calm - N/A   Overcast
11:15 AM 59.0 °F 59.0 °F 100% 30.14 in 4.0 mi ESE 3.5 mph - N/A   Overcast
11:35 AM 60.8 °F 59.0 °F 94% 30.14 in 4.0 mi Calm Calm - N/A   Overcast
11:55 AM 60.8 °F 59.0 °F 94% 30.13 in 5.0 mi Calm Calm - N/A   Overcast
12:15 PM 60.8 °F 59.0 °F 94% 30.14 in 5.0 mi Calm Calm - N/A   Overcast
12:35 PM 60.8 °F 59.0 °F 94% 30.13 in 5.0 mi Calm Calm - N/A   Overcast
12:55 PM 62.6 °F 59.0 °F 88% 30.13 in 7.0 mi Calm Calm - N/A   Overcast
1:15 PM 62.6 °F 59.0 °F 88% 30.13 in 7.0 mi Calm Calm - N/A   Overcast
1:35 PM 64.4 °F 60.8 °F 88% 30.11 in 7.0 mi Calm Calm - N/A   Overcast
1:55 PM 64.4 °F 60.8 °F 88% 30.11 in 10.0 mi East 3.5 mph - N/A   Overcast
2:15 PM 64.4 °F 60.8 °F 88% 30.10 in 7.0 mi Calm Calm - N/A Rain Rain
2:35 PM 62.6 °F 60.8 °F 94% 30.10 in 5.0 mi Calm Calm - N/A Rain Rain
2:55 PM 62.6 °F 60.8 °F 94% 30.09 in 4.0 mi Calm Calm - 0.02 in Rain Rain
3:15 PM 62.6 °F 62.6 °F 100% 30.08 in 4.0 mi Calm Calm - 0.01 in Rain Light Rain
3:35 PM 62.6 °F 62.6 °F 100% 30.06 in 5.0 mi Calm Calm - 0.03 in Rain Light Rain
3:55 PM 62.6 °F 62.6 °F 100% 30.06 in 7.0 mi Calm Calm - 0.03 in   Mostly Cloudy
4:15 PM 64.4 °F 62.6 °F 94% 30.06 in 10.0 mi Calm Calm - N/A   Overcast
4:35 PM 64.4 °F 62.6 °F 94% 30.05 in 10.0 mi SW 3.5 mph - N/A   Light Drizzle
4:55 PM 64.4 °F 60.8 °F 88% 30.04 in 10.0 mi Calm Calm - N/A   Overcast
5:15 PM 66.2 °F 60.8 °F 83% 30.05 in 10.0 mi South 5.8 mph - N/A   Scattered Clouds
5:35 PM 66.2 °F 60.8 °F 83% 30.05 in 10.0 mi SSW 5.8 mph - N/A   Mostly Cloudy
5:55 PM 64.4 °F 59.0 °F 83% 30.04 in 10.0 mi SSW 6.9 mph - N/A   Overcast
6:15 PM 64.4 °F 60.8 °F 88% 30.04 in 10.0 mi South 3.5 mph - N/A   Light Drizzle
6:35 PM 64.4 °F 60.8 °F 88% 30.03 in 10.0 mi South 3.5 mph - N/A   Light Drizzle
6:55 PM 64.4 °F 60.8 °F 88% 30.03 in 10.0 mi South 4.6 mph - N/A   Overcast
7:15 PM 64.4 °F 60.8 °F 88% 30.02 in 10.0 mi South 5.8 mph - N/A   Overcast
7:35 PM 62.6 °F 60.8 °F 94% 30.02 in 10.0 mi SSW 3.5 mph - N/A Rain Light Rain
7:55 PM 62.6 °F 60.8 °F 94% 30.03 in 10.0 mi SW 4.6 mph - N/A Rain Rain
8:15 PM 62.6 °F 60.8 °F 94% 30.03 in 10.0 mi SW 4.6 mph - N/A Rain Rain
8:35 PM 62.6 °F 60.8 °F 94% 30.03 in 10.0 mi Calm Calm - N/A   Overcast
8:55 PM 60.8 °F 60.8 °F 100% 30.03 in 10.0 mi Calm Calm - N/A   Overcast
9:15 PM 60.8 °F 60.8 °F 100% 30.04 in 10.0 mi Calm Calm - N/A   Overcast
9:35 PM 60.8 °F 60.8 °F 100% 30.04 in 10.0 mi Calm Calm - N/A   Overcast
9:55 PM 60.8 °F 60.8 °F 100% 30.03 in 10.0 mi Calm Calm - N/A   Overcast
10:15 PM 60.8 °F 59.0 °F 94% 30.03 in 10.0 mi Calm Calm - N/A   Overcast
10:35 PM 60.8 °F 59.0 °F 94% 30.02 in 10.0 mi Calm Calm - N/A   Mostly Cloudy
10:55 PM 60.8 °F 60.8 °F 100% 30.02 in 10.0 mi Calm Calm - N/A   Mostly Cloudy
11:15 PM 60.8 °F 60.8 °F 100% 30.02 in 10.0 mi Calm Calm - N/A   Overcast
11:35 PM 60.8 °F 60.8 °F 100% 30.03 in 10.0 mi SW 3.5 mph - N/A   Overcast
11:55 PM 60.8 °F 60.8 °F 100% 30.03 in 10.0 mi SW 3.5 mph - N/A Rain Rain